[[{"header":{"parameterUnit":"m.s-1","parameterCategory":1,"la1":30.2991,"la2":30.254,"lo1":-89.0895,"lo2":-89.0444,"dy":0.0017,"dx":0.0017,"nx":28,"ny":28,"refTime":"2024-04-06T03:00:00:Z","depth":0,"parameterNumber":2,"parameterNumberName":"U-component_of_WINDS"},"data":[0,0,0,0,0,0,0,0,0,0,0,0,0,0,0,0,0,0,0,0,0,0,0,0,0,0,0,0,0,0,0,0,0,0,0,0,0,0,0,0,0,0,0,0,0,0,0,0,0,0,0,0,0,0,0,0,0,0,-4.4199,-4.4198,0,-4.4151,-4.4151,-4.415,-4.3989,-4.3986,-4.3982,-4.3979,-4.3933,-4.3935,-4.3937,0,0,0,0,0,0,0,0,0,0,0,0,0,-4.4154,-4.4156,-4.4199,-4.4198,-4.4197,-4.4151,-4.4151,-4.415,-4.399,-4.3985,-4.3981,-4.3977,-4.3932,-4.3935,-4.3937,0,0,0,0,0,0,0,0,0,0,0,0,0,-4.4147,-4.4156,-4.4199,-4.4112,-4.4104,-4.4152,-4.4151,-4.415,-4.3991,-4.3985,-4.398,-4.3975,-4.3931,-4.3935,-4.3938,-4.4067,0,0,-4.3948,-4.3949,0,0,0,0,0,0,0,0,-4.4148,-4.4149,-4.4125,-4.4118,-4.4109,-4.407,-4.4118,-4.4122,-4.3992,-4.4034,-4.3978,-4.3972,-4.3983,-4.3982,-4.3985,-4.4065,-4.4063,-4.3948,-4.395,-4.3951,-4.3952,0,0,0,0,0,0,0,-4.4148,-4.415,-4.418,-4.4125,-4.4115,-4.4077,-4.407,-4.4118,-4.404,-4.403,-4.4018,-4.4014,-4.3978,-4.3982,-4.3983,-4.4062,-4.3948,-4.3951,-4.3953,-4.3954,-4.4247,-4.4252,0,0,0,0,0,0,-4.4161,-4.4151,-4.4181,-4.4178,-4.4115,-4.4082,-4.4074,-4.4088,-4.4039,-4.4026,-4.4019,-4.4007,-4.398,-4.3979,-4.3981,-4.4128,-4.3951,-4.3954,-4.3956,-4.4241,-4.4248,-4.4254,0,0,0,0,0,0,-4.416,-4.4165,-4.4183,-4.4162,-4.4161,-4.4088,-4.4106,-4.409,-4.4094,-4.4031,-4.4016,-4.4038,-4.3975,-4.3976,-4.4047,-4.4125,-4.3956,-4.3959,-4.4234,-4.4243,-4.4251,-4.4426,0,0,0,0,0,0,-4.416,-4.4166,-4.4213,-4.4164,-4.4163,-4.4249,-4.4111,-4.4093,-4.41,-4.4084,-4.4044,-4.4033,-4.3971,-4.4043,-4.405,-4.4126,-4.3961,-4.4227,-4.4238,-4.4248,-4.4413,-4.4439,-4.4462,0,0,0,0,0,-4.4159,-4.4264,-4.4216,-4.422,-4.422,-4.4254,-4.4253,-4.4179,-4.4107,-4.4155,-4.4114,-4.4034,-4.4116,-4.4051,-4.4058,-4.4137,-4.4221,-4.4235,-4.4248,-4.4402,-4.4434,-4.4462,0,0,0,0,0,0,-4.4324,-4.4256,-4.4202,-4.4294,-4.4281,-4.4227,-4.4284,-4.4216,-4.4224,-4.4209,-4.4118,-4.411,-4.4194,-4.4172,-4.4102,-4.426,-4.4155,-4.4171,-4.427,-4.4301,-4.4325,-4.4328,-4.3964,0,0,0,0,0,-4.4371,-4.4403,-4.4343,-4.443,-4.4426,-4.4357,-4.4369,-4.4314,-4.4297,-4.429,-4.4255,-4.4242,-4.4265,-4.4282,-4.4299,-4.441,-4.4399,-4.4467,-4.4492,-4.4513,-4.4526,-4.4584,-4.4614,-4.4297,-4.4297,-4.4297,0,0,-4.4469,-4.4436,-4.4461,-4.4463,-4.4446,-4.4482,-4.4353,-4.4397,-4.4424,-4.4297,-4.4361,-4.4336,-4.4316,-4.4407,-4.4446,-4.4392,-4.4612,-4.453,-4.4547,-4.4549,-4.4601,-4.4631,-4.4658,-4.4306,-4.4305,-4.4303,0,0,-4.4665,-4.4643,-4.4714,-4.47,-4.4677,-4.463,-4.4648,-4.4605,-4.4582,-4.4645,-4.4552,-4.4583,-4.4624,-4.4614,-4.4615,-4.4812,-4.4738,-4.482,-4.4949,-4.5006,-4.5031,-4.5053,-4.5123,-4.5149,-4.4834,-4.4835,-4.4835,0,-4.4789,-4.4839,-4.4759,-4.4809,-4.4813,-4.4701,-4.4773,-4.4764,-4.4748,-4.4754,-4.4694,-4.4744,-4.4723,-4.4811,-4.486,-4.4864,-4.4882,-4.4823,-4.5034,-4.5055,-4.5074,-4.514,-4.5166,-4.4845,-4.4844,-4.4843,-4.4842,0,-4.4993,-4.503,-4.509,-4.5077,-4.5088,-4.515,-4.508,-4.5102,-4.5047,-4.5008,-4.5074,-4.5046,-4.5056,-4.5073,-4.502,-4.5155,-4.5122,-4.505,-4.4943,-4.5116,-4.5176,-4.52,-4.4859,-4.4856,-4.4853,-4.485,0,0,-4.5288,-4.5233,-4.5256,-4.5249,-4.5217,-4.5244,-4.5302,-4.5312,-4.5332,-4.5326,-4.5372,-4.5411,-4.5345,-4.5346,-4.5291,-4.5342,-4.55,-4.5263,-4.5261,-4.5307,-4.5647,-4.5701,-4.5731,-4.5453,-4.5457,-4.5461,-4.5649,0,-4.5474,-4.5566,-4.5498,-4.5603,-4.5637,-4.5533,-4.5583,-4.557,-4.5536,-4.5561,-4.5524,-4.5553,-4.5463,-4.5463,-4.5509,-4.5471,-4.5567,-4.5457,-4.5495,-4.5497,-4.5501,-4.5762,-4.5818,-4.5997,-4.5672,-4.5676,-4.5679,0,-4.5701,-4.5705,-4.5815,-4.5777,-4.5788,-4.5835,-4.5839,-4.5864,-4.5848,-4.582,-4.5823,-4.5755,-4.5811,-4.5708,-4.5783,-4.571,-4.5723,-4.5707,-4.5712,-4.5711,-4.5597,-4.5768,-4.6052,-4.6079,-4.5715,-4.5712,-4.571,0,-4.5905,-4.5938,-4.6008,-4.6006,-4.5964,-4.5999,-4.5983,-4.5962,-4.5973,-4.5978,-4.5984,-4.5996,-4.6003,-4.6014,-4.5953,-4.5883,-4.6037,-4.5929,-4.6015,-4.6017,-4.605,-4.6049,-4.634,-4.6062,-4.6061,-4.6061,-4.606,0,-4.6118,-4.6188,-4.6099,-4.6141,-4.6218,-4.6141,-4.6219,-4.6193,-4.6176,-4.6213,-4.6125,-4.6162,-4.6079,-4.6108,-4.6061,-4.6131,-4.6135,-4.6114,-4.61,-4.6121,-4.6124,-4.6126,-4.6112,-4.6068,-4.6066,-4.6065,-4.6064,0,-4.6356,-4.6299,-4.6368,-4.6324,-4.6315,-4.6374,-4.6336,-4.6375,-4.6336,-4.6384,-4.6391,-4.6332,-4.6361,-4.6302,-4.6324,-4.6292,-4.6391,-4.6359,-4.6396,-4.6386,-4.6476,-4.6468,-4.6777,-4.6814,-4.6514,-4.6517,-4.652,0,-4.6495,-4.6547,-4.6509,-4.6527,-4.6516,-4.6547,-4.6558,-4.6485,-4.6501,-4.6488,-4.6529,-4.6552,-4.6565,-4.6619,-4.6578,-4.6595,-4.6561,-4.6669,-4.6563,-4.6583,-4.6562,-4.6559,-4.6564,-4.669,-4.6693,-4.6696,-4.6699,0,-4.6747,-4.6717,-4.6735,-4.6746,-4.6762,-4.6767,-4.6765,-4.6786,-4.6708,-4.6731,-4.676,-4.6771,-4.6794,-4.6818,-4.6826,-4.6811,-4.6743,-4.6733,-4.6754,-4.6774,-4.6793,-4.6784,-4.6454,-4.6725,-4.6723,-4.6721,-4.6719,-4.6718,-4.6938,-4.698,-4.6961,-4.6985,-4.6977,-4.6979,-4.7013,-4.698,-4.7003,-4.7015,-4.6972,-4.7012,-4.6997,-4.7,-4.6994,-4.7025,-4.6977,-4.7007,-4.7014,-4.7023,-4.7037,-4.6791,-4.7026,-4.7025,-4.7025,-4.7024,-4.7023,0,-4.7185,-4.7168,-4.7192,-4.7193,-4.7213,-4.7148,-4.7144,-4.7165,-4.7201,-4.7193,-4.7209,-4.7245,-4.7268,-4.7231,-4.7249,-4.7281,-4.725,-4.7288,-4.7284,-4.7282,-4.7079,-4.7059,-4.7313,-4.7313,-4.7312,-4.7312,-4.7312,-4.7312,-4.7315,-4.7383,-4.7351,-4.7415,-4.7397,-4.7435,-4.7439,-4.7441,-4.7434,-4.7477,-4.7496,-4.7472,-4.7452,-4.7468,-4.7488,-4.7476,-4.7487,-4.7536,-4.7513,-4.7324,-4.7296,-4.7269,-4.7249,-4.7539,-4.7539,-4.7713,-4.7715,-4.7716]},{"header":{"parameterUnit":"m.s-1","parameterCategory":1,"la1":30.2991,"la2":30.254,"lo1":-89.0895,"lo2":-89.0444,"dy":0.0017,"dx":0.0017,"nx":28,"ny":28,"refTime":"2024-04-06T03:00:00:Z","depth":0,"parameterNumber":3,"parameterNumberName":"V-component_of_WINDS"},"data":[0,0,0,0,0,0,0,0,0,0,0,0,0,0,0,0,0,0,0,0,0,0,0,0,0,0,0,0,0,0,0,0,0,0,0,0,0,0,0,0,0,0,0,0,0,0,0,0,0,0,0,0,0,0,0,0,0,0,1.9043,1.9042,0,1.9,1.9,1.8999,1.9014,1.9015,1.9016,1.9017,1.8969,1.8966,1.8964,0,0,0,0,0,0,0,0,0,0,0,0,0,1.9134,1.9132,1.9043,1.9042,1.9042,1.9,1.9,1.8999,1.9014,1.9015,1.9017,1.9018,1.8969,1.8967,1.8964,0,0,0,0,0,0,0,0,0,0,0,0,0,1.9093,1.9131,1.9043,1.9044,1.9044,1.9,1.9,1.8999,1.9014,1.9015,1.9017,1.9018,1.897,1.8967,1.8964,1.8915,0,0,1.8954,1.8952,0,0,0,0,0,0,0,0,1.9095,1.9089,1.9045,1.9044,1.9044,1.9014,1.9014,1.897,1.9014,1.9025,1.9017,1.9019,1.8982,1.8978,1.8967,1.8912,1.891,1.8953,1.8951,1.895,1.8949,0,0,0,0,0,0,0,1.9098,1.9091,1.9026,1.9044,1.9043,1.9046,1.9042,1.9006,1.8996,1.9024,1.9025,1.902,1.8982,1.897,1.8966,1.8909,1.8954,1.8951,1.8949,1.8947,1.8814,1.8812,0,0,0,0,0,0,1.9102,1.9094,1.9027,1.9024,1.9074,1.9043,1.9039,1.9022,1.8996,1.8994,1.9019,1.9021,1.8975,1.897,1.8964,1.8905,1.895,1.8947,1.8945,1.8815,1.8814,1.8812,0,0,0,0,0,0,1.9103,1.9095,1.9029,1.9059,1.9051,1.904,1.9022,1.902,1.9008,1.8993,1.8991,1.9009,1.8976,1.8969,1.8927,1.8904,1.8945,1.8942,1.8817,1.8815,1.8813,1.8787,0,0,0,0,0,0,1.9106,1.9096,1.9078,1.9059,1.9049,1.8993,1.902,1.9019,1.9003,1.9005,1.8982,1.898,1.8976,1.8932,1.8924,1.89,1.894,1.8819,1.8816,1.8813,1.8789,1.8784,1.8779,0,0,0,0,0,1.9109,1.907,1.9077,1.9068,1.9026,1.8992,1.8987,1.8985,1.9001,1.8982,1.8973,1.898,1.8908,1.8928,1.8919,1.8893,1.8821,1.8817,1.8814,1.8792,1.8785,1.8779,0,0,0,0,0,0,1.9084,1.9068,1.9074,1.9029,1.9012,1.8995,1.897,1.8977,1.8954,1.8957,1.8955,1.8949,1.8907,1.8896,1.8919,1.8845,1.8867,1.8861,1.8853,1.8846,1.8841,1.8844,1.8937,0,0,0,0,0,1.9074,1.9049,1.9035,1.8996,1.8988,1.8981,1.8966,1.8967,1.8948,1.8941,1.8928,1.8909,1.8882,1.8864,1.8838,1.8789,1.8784,1.8767,1.8762,1.8757,1.8752,1.8726,1.8718,1.88,1.88,1.88,0,0,1.9051,1.9039,1.9023,1.8991,1.8978,1.8951,1.8974,1.8944,1.8924,1.8935,1.8896,1.8887,1.8865,1.882,1.8799,1.8809,1.8729,1.8753,1.875,1.8746,1.8721,1.8714,1.8707,1.8798,1.8798,1.8799,0,0,1.8996,1.8985,1.8951,1.8939,1.892,1.8916,1.8908,1.8891,1.8885,1.8847,1.8855,1.8831,1.8784,1.8769,1.8755,1.8698,1.8704,1.8689,1.866,1.8635,1.8628,1.8622,1.8601,1.8594,1.8685,1.8684,1.8684,0,1.8969,1.893,1.8933,1.8903,1.8889,1.8901,1.8867,1.8854,1.8827,1.8816,1.8829,1.8773,1.8759,1.8711,1.8698,1.8686,1.8676,1.8691,1.8629,1.8623,1.8618,1.8598,1.859,1.8683,1.8683,1.8683,1.8683,0,1.8898,1.8871,1.8846,1.8823,1.8806,1.8774,1.8771,1.8754,1.8758,1.8752,1.8713,1.8698,1.867,1.8659,1.8661,1.8611,1.8618,1.863,1.8651,1.8608,1.859,1.8582,1.868,1.8681,1.8681,1.8682,0,0,1.8822,1.8803,1.8794,1.8784,1.8766,1.8744,1.8714,1.8689,1.8674,1.8656,1.8629,1.8591,1.8603,1.8587,1.8588,1.8566,1.8522,1.8581,1.858,1.8569,1.8466,1.8456,1.8447,1.8527,1.8525,1.8524,1.8468,0,1.8765,1.8712,1.8715,1.8665,1.864,1.8653,1.8627,1.8612,1.8607,1.8585,1.8579,1.8552,1.857,1.8561,1.854,1.8531,1.85,1.8536,1.8501,1.8499,1.8504,1.8437,1.8426,1.8374,1.846,1.8459,1.8458,0,1.8689,1.8672,1.862,1.8607,1.8597,1.8573,1.8551,1.853,1.8514,1.8512,1.8497,1.8502,1.847,1.8495,1.8451,1.8475,1.8461,1.8455,1.8453,1.8448,1.8475,1.8429,1.8357,1.8348,1.8447,1.8448,1.8448,0,1.8639,1.8601,1.8566,1.8557,1.8542,1.8525,1.8517,1.8503,1.8489,1.847,1.846,1.8437,1.8424,1.8405,1.8404,1.8422,1.836,1.8384,1.8356,1.8356,1.834,1.8341,1.8263,1.8334,1.8334,1.8334,1.8334,0,1.8573,1.854,1.8543,1.8521,1.8486,1.849,1.8454,1.8448,1.8436,1.8413,1.8423,1.84,1.8401,1.8378,1.8377,1.834,1.8334,1.8331,1.8331,1.8329,1.833,1.8319,1.8322,1.8332,1.8333,1.8333,1.8333,0,1.8508,1.8509,1.8472,1.8462,1.8458,1.8432,1.8423,1.8402,1.84,1.837,1.8363,1.8359,1.8332,1.833,1.8299,1.8298,1.8254,1.8259,1.826,1.826,1.8232,1.8234,1.8143,1.8131,1.8211,1.8211,1.821,0,1.8466,1.8441,1.843,1.8416,1.8408,1.8386,1.8372,1.8376,1.8361,1.8343,1.8324,1.8299,1.8279,1.8237,1.823,1.8207,1.8209,1.8179,1.8206,1.8205,1.8208,1.8209,1.8206,1.8173,1.8172,1.8172,1.8171,0,1.8389,1.8392,1.8372,1.8353,1.8337,1.8322,1.8308,1.8296,1.8298,1.8281,1.8256,1.8241,1.8211,1.8186,1.8164,1.8155,1.8163,1.8164,1.8156,1.8153,1.8154,1.8152,1.8244,1.8165,1.8165,1.8166,1.8166,1.8166,1.8334,1.8313,1.8303,1.8281,1.8272,1.8259,1.8239,1.8236,1.8215,1.8193,1.8196,1.8168,1.8155,1.8126,1.8116,1.8093,1.8103,1.8092,1.8089,1.8086,1.8083,1.816,1.8089,1.809,1.809,1.809,1.809,0,1.8257,1.8252,1.8232,1.8214,1.8197,1.821,1.8195,1.818,1.8155,1.8143,1.8125,1.8096,1.8073,1.8066,1.8043,1.8026,1.803,1.802,1.802,1.8018,1.8075,1.8084,1.8018,1.8018,1.8018,1.8018,1.8018,1.8018,1.8215,1.8182,1.8183,1.8146,1.814,1.8114,1.8105,1.8094,1.8084,1.8052,1.8034,1.8031,1.802,1.7998,1.7977,1.7975,1.7966,1.7955,1.7954,1.8007,1.8014,1.8021,1.8029,1.7953,1.7953,1.7899,1.7899,1.7898]}]]